Wetterdaten: Dienstag, 16.04.2013
Datum Zeit Temp. I. Temp. A. Boden 5 cm Feuchte A. Sonne Luftdruck Regen Wind Sonnenschein
16.04.2013 00:02 20,8 C 13,4 C 9,7 C 53 % 0 % 1014 hPa 0,0 l/m 3,6 km/h (1 Bft) 0 min
16.04.2013 00:05 20,8 C 13,4 C 9,3 C 53 % 0 % 1014 hPa 0,0 l/m 3,4 km/h (1 Bft) 0 min
16.04.2013 00:08 20,8 C 13,3 C 10,1 C 54 % 0 % 1014 hPa 0,0 l/m 4,0 km/h (1 Bft) 0 min
16.04.2013 00:11 20,8 C 13,2 C 9,5 C 54 % 0 % 1014 hPa 0,0 l/m 0,1 km/h (0 Bft) 0 min
16.04.2013 00:14 20,8 C 13,2 C 9,3 C 54 % 0 % 1014 hPa 0,0 l/m 0,1 km/h (0 Bft) 0 min
16.04.2013 00:17 20,8 C 13,2 C 9,3 C 53 % 0 % 1014 hPa 0,0 l/m 0,0 km/h (0 Bft) 0 min
16.04.2013 00:20 20,8 C 13,2 C 9,3 C 53 % 0 % 1014 hPa 0,0 l/m 0,0 km/h (0 Bft) 0 min
16.04.2013 00:23 20,8 C 13,2 C 9,4 C 53 % 0 % 1014 hPa 0,0 l/m 0,7 km/h (0 Bft) 0 min
16.04.2013 00:26 20,8 C 13,1 C 9,5 C 53 % 0 % 1014 hPa 0,0 l/m 0,7 km/h (0 Bft) 0 min
16.04.2013 00:29 20,8 C 13,1 C 9,3 C 54 % 0 % 1014 hPa 0,0 l/m 0,7 km/h (0 Bft) 0 min
16.04.2013 00:32 20,7 C 13,0 C 9,6 C 54 % 0 % 1014 hPa 0,0 l/m 0,0 km/h (0 Bft) 0 min
16.04.2013 00:35 20,7 C 12,9 C 10,1 C 55 % 0 % 1014 hPa 0,0 l/m 0,4 km/h (0 Bft) 0 min
16.04.2013 00:38 20,7 C 13,0 C 9,8 C 55 % 0 % 1014 hPa 0,0 l/m 3,5 km/h (1 Bft) 0 min
16.04.2013 00:41 20,7 C 13,1 C 9,7 C 55 % 0 % 1014 hPa 0,0 l/m 6,4 km/h (2 Bft) 0 min
16.04.2013 00:44 20,7 C 13,2 C 9,5 C 54 % 0 % 1014 hPa 0,0 l/m 4,5 km/h (1 Bft) 0 min
16.04.2013 00:47 20,7 C 13,1 C 9,5 C 54 % 0 % 1014 hPa 0,0 l/m 2,8 km/h (1 Bft) 0 min
16.04.2013 00:50 20,7 C 12,9 C 9,5 C 55 % 0 % 1014 hPa 0,0 l/m 1,0 km/h (0 Bft) 0 min
16.04.2013 00:53 20,7 C 12,7 C 9,4 C 55 % 0 % 1014 hPa 0,0 l/m 0,4 km/h (0 Bft) 0 min
16.04.2013 00:56 20,7 C 12,6 C 9,2 C 56 % 0 % 1014 hPa 0,0 l/m 0,9 km/h (0 Bft) 0 min
16.04.2013 00:59 20,7 C 12,5 C 8,8 C 56 % 0 % 1014 hPa 0,0 l/m 0,0 km/h (0 Bft) 0 min
16.04.2013 01:02 20,7 C 12,5 C 8,5 C 56 % 0 % 1014 hPa 0,0 l/m 0,0 km/h (0 Bft) 0 min
16.04.2013 01:05 20,7 C 12,4 C 8,6 C 56 % 0 % 1014 hPa 0,0 l/m 0,0 km/h (0 Bft) 0 min
16.04.2013 01:08 20,7 C 12,5 C 8,4 C 56 % 0 % 1014 hPa 0,0 l/m 0,0 km/h (0 Bft) 0 min
16.04.2013 01:11 20,7 C 12,5 C 8,2 C 56 % 0 % 1014 hPa 0,0 l/m 0,0 km/h (0 Bft) 0 min
16.04.2013 01:14 20,7 C 12,5 C 8,6 C 56 % 0 % 1014 hPa 0,0 l/m 0,0 km/h (0 Bft) 0 min
16.04.2013 01:17 20,7 C 12,3 C 8,6 C 56 % 0 % 1014 hPa 0,0 l/m 0,0 km/h (0 Bft) 0 min
16.04.2013 01:20 20,6 C 12,3 C 8,7 C 56 % 0 % 1014 hPa 0,0 l/m 0,0 km/h (0 Bft) 0 min
16.04.2013 01:23 20,7 C 12,2 C 8,7 C 56 % 0 % 1014 hPa 0,0 l/m 0,0 km/h (0 Bft) 0 min
16.04.2013 01:26 20,6 C 12,2 C 8,6 C 56 % 0 % 1014 hPa 0,0 l/m 0,0 km/h (0 Bft) 0 min
16.04.2013 01:29 20,6 C 12,1 C 8,4 C 56 % 0 % 1014 hPa 0,0 l/m 0,1 km/h (0 Bft) 0 min
16.04.2013 01:32 20,6 C 12,1 C 8,3 C 56 % 0 % 1014 hPa 0,0 l/m 0,0 km/h (0 Bft) 0 min
16.04.2013 01:35 20,6 C 12,1 C 8,3 C 56 % 0 % 1014 hPa 0,0 l/m 0,0 km/h (0 Bft) 0 min
16.04.2013 01:38 20,6 C 12,1 C 8,4 C 56 % 0 % 1014 hPa 0,0 l/m 0,0 km/h (0 Bft) 0 min
16.04.2013 01:41 20,6 C 12,0 C 8,4 C 56 % 0 % 1014 hPa 0,0 l/m 0,0 km/h (0 Bft) 0 min
16.04.2013 01:44 20,6 C 12,0 C 8,3 C 56 % 0 % 1014 hPa 0,0 l/m 0,0 km/h (0 Bft) 0 min
16.04.2013 01:47 20,6 C 12,0 C 8,3 C 57 % 0 % 1014 hPa 0,0 l/m 0,0 km/h (0 Bft) 0 min
16.04.2013 01:50 20,6 C 11,9 C 8,5 C 57 % 0 % 1014 hPa 0,0 l/m 0,0 km/h (0 Bft) 0 min
16.04.2013 01:53 20,6 C 11,9 C 8,2 C 57 % 0 % 1014 hPa 0,0 l/m 0,0 km/h (0 Bft) 0 min
16.04.2013 01:56 20,6 C 11,9 C 8,3 C 57 % 0 % 1014 hPa 0,0 l/m 0,0 km/h (0 Bft) 0 min
16.04.2013 01:59 20,6 C 11,9 C 8,2 C 57 % 0 % 1014 hPa 0,0 l/m 0,0 km/h (0 Bft) 0 min
16.04.2013 02:02 20,6 C 11,9 C 8,2 C 57 % 0 % 1014 hPa 0,0 l/m 0,0 km/h (0 Bft) 0 min
16.04.2013 02:05 20,6 C 11,7 C 7,8 C 57 % 0 % 1014 hPa 0,0 l/m 1,3 km/h (1 Bft) 0 min
16.04.2013 02:08 20,6 C 11,6 C 7,6 C 57 % 0 % 1014 hPa 0,0 l/m 0,0 km/h (0 Bft) 0 min
16.04.2013 02:11 20,6 C 11,6 C 7,6 C 58 % 0 % 1014 hPa 0,0 l/m 0,0 km/h (0 Bft) 0 min
16.04.2013 02:14 20,6 C 11,6 C 7,9 C 58 % 0 % 1014 hPa 0,0 l/m 0,0 km/h (0 Bft) 0 min
16.04.2013 02:17 20,6 C 11,5 C 7,7 C 58 % 0 % 1014 hPa 0,0 l/m 0,0 km/h (0 Bft) 0 min
16.04.2013 02:20 20,6 C 11,5 C 7,7 C 58 % 0 % 1014 hPa 0,0 l/m 0,0 km/h (0 Bft) 0 min
16.04.2013 02:23 20,6 C 11,5 C 7,6 C 58 % 0 % 1014 hPa 0,0 l/m 0,1 km/h (0 Bft) 0 min
16.04.2013 02:26 20,6 C 11,4 C 7,4 C 58 % 0 % 1014 hPa 0,0 l/m 0,3 km/h (0 Bft) 0 min
16.04.2013 02:29 20,6 C 11,4 C 7,7 C 58 % 0 % 1014 hPa 0,0 l/m 0,9 km/h (0 Bft) 0 min
16.04.2013 02:32 20,6 C 11,4 C 7,5 C 59 % 0 % 1014 hPa 0,0 l/m 2,3 km/h (1 Bft) 0 min
16.04.2013 02:35 20,6 C 11,3 C 7,6 C 59 % 0 % 1014 hPa 0,0 l/m 2,4 km/h (1 Bft) 0 min
16.04.2013 02:38 20,6 C 11,2 C 7,6 C 60 % 0 % 1014 hPa 0,0 l/m 3,4 km/h (1 Bft) 0 min
16.04.2013 02:41 20,6 C 11,2 C 7,1 C 61 % 0 % 1014 hPa 0,0 l/m 2,4 km/h (1 Bft) 0 min
16.04.2013 02:44 20,6 C 11,2 C 7,1 C 61 % 0 % 1014 hPa 0,0 l/m 0,1 km/h (0 Bft) 0 min
16.04.2013 02:47 20,6 C 11,2 C 7,2 C 61 % 0 % 1014 hPa 0,0 l/m 4,0 km/h (1 Bft) 0 min
16.04.2013 02:50 20,6 C 11,1 C 7,7 C 61 % 0 % 1014 hPa 0,0 l/m 6,3 km/h (2 Bft) 0 min
16.04.2013 02:53 20,6 C 11,1 C 8,0 C 62 % 0 % 1014 hPa 0,0 l/m 5,0 km/h (1 Bft) 0 min
16.04.2013 02:56 20,6 C 11,1 C 8,2 C 62 % 0 % 1014 hPa 0,0 l/m 4,3 km/h (1 Bft) 0 min
16.04.2013 02:59 20,5 C 11,1 C 8,0 C 63 % 0 % 1014 hPa 0,0 l/m 4,5 km/h (1 Bft) 0 min
16.04.2013 03:02 20,5 C 11,1 C 8,0 C 63 % 0 % 1014 hPa 0,0 l/m 4,5 km/h (1 Bft) 0 min
16.04.2013 03:05 20,5 C 11,1 C 8,2 C 63 % 0 % 1014 hPa 0,0 l/m 5,0 km/h (1 Bft) 0 min
16.04.2013 03:08 20,5 C 11,0 C 8,2 C 62 % 0 % 1014 hPa 0,0 l/m 4,6 km/h (1 Bft) 0 min
16.04.2013 03:11 20,5 C 11,0 C 7,9 C 62 % 0 % 1014 hPa 0,0 l/m 2,4 km/h (1 Bft) 0 min
16.04.2013 03:14 20,5 C 11,0 C 8,2 C 62 % 0 % 1014 hPa 0,0 l/m 8,6 km/h (2 Bft) 0 min
16.04.2013 03:17 20,5 C 11,1 C 8,1 C 62 % 0 % 1014 hPa 0,0 l/m 4,8 km/h (1 Bft) 0 min
16.04.2013 03:20 20,5 C 11,1 C 8,0 C 61 % 0 % 1013 hPa 0,0 l/m 5,7 km/h (1 Bft) 0 min
16.04.2013 03:23 20,5 C 11,1 C 7,6 C 61 % 0 % 1014 hPa 0,0 l/m 0,3 km/h (0 Bft) 0 min
16.04.2013 03:26 20,5 C 11,1 C 8,0 C 61 % 0 % 1014 hPa 0,0 l/m 2,1 km/h (1 Bft) 0 min
16.04.2013 03:29 20,5 C 11,1 C 7,8 C 61 % 0 % 1014 hPa 0,0 l/m 3,2 km/h (1 Bft) 0 min
16.04.2013 03:32 20,5 C 11,1 C 7,6 C 61 % 0 % 1014 hPa 0,0 l/m 3,2 km/h (1 Bft) 0 min
16.04.2013 03:35 20,5 C 11,1 C 7,3 C 61 % 0 % 1014 hPa 0,0 l/m 0,9 km/h (0 Bft) 0 min
16.04.2013 03:38 20,5 C 11,0 C 7,7 C 61 % 0 % 1014 hPa 0,0 l/m 1,0 km/h (0 Bft) 0 min
16.04.2013 03:41 20,5 C 10,7 C 7,1 C 63 % 0 % 1014 hPa 0,0 l/m 4,0 km/h (1 Bft) 0 min
16.04.2013 03:44 20,5 C 10,5 C 7,2 C 63 % 0 % 1014 hPa 0,0 l/m 0,1 km/h (0 Bft) 0 min
16.04.2013 03:47 20,5 C 10,5 C 7,2 C 63 % 0 % 1014 hPa 0,0 l/m 0,0 km/h (0 Bft) 0 min
16.04.2013 03:50 20,5 C 10,5 C 7,0 C 63 % 0 % 1014 hPa 0,0 l/m 0,0 km/h (0 Bft) 0 min
16.04.2013 03:53 20,5 C 10,5 C 7,2 C 63 % 0 % 1014 hPa 0,0 l/m 0,3 km/h (0 Bft) 0 min
16.04.2013 03:56 20,5 C 10,5 C 7,2 C 63 % 0 % 1014 hPa 0,0 l/m 2,0 km/h (1 Bft) 0 min
16.04.2013 03:59 20,5 C 10,5 C 7,1 C 62 % 0 % 1014 hPa 0,0 l/m 3,7 km/h (1 Bft) 0 min
16.04.2013 04:02 20,5 C 10,5 C 7,1 C 62 % 0 % 1014 hPa 0,0 l/m 3,7 km/h (1 Bft) 0 min
16.04.2013 04:05 20,5 C 10,3 C 7,1 C 63 % 0 % 1014 hPa 0,0 l/m 0,0 km/h (0 Bft) 0 min
16.04.2013 04:08 20,5 C 10,2 C 6,9 C 63 % 0 % 1014 hPa 0,0 l/m 0,0 km/h (0 Bft) 0 min
16.04.2013 04:11 20,5 C 10,1 C 6,8 C 63 % 0 % 1014 hPa 0,0 l/m 0,0 km/h (0 Bft) 0 min
16.04.2013 04:14 20,5 C 10,1 C 6,7 C 64 % 0 % 1014 hPa 0,0 l/m 0,0 km/h (0 Bft) 0 min
16.04.2013 04:17 20,5 C 10,0 C 6,6 C 64 % 0 % 1014 hPa 0,0 l/m 0,0 km/h (0 Bft) 0 min
16.04.2013 04:20 20,5 C 10,0 C 6,4 C 64 % 0 % 1014 hPa 0,0 l/m 0,0 km/h (0 Bft) 0 min
16.04.2013 04:23 20,6 C 9,9 C 6,4 C 64 % 0 % 1014 hPa 0,0 l/m 0,0 km/h (0 Bft) 0 min
16.04.2013 04:26 20,6 C 9,8 C 6,4 C 64 % 0 % 1014 hPa 0,0 l/m 0,0 km/h (0 Bft) 0 min
16.04.2013 04:29 20,6 C 9,7 C 6,3 C 64 % 0 % 1014 hPa 0,0 l/m 0,0 km/h (0 Bft) 0 min
16.04.2013 04:32 20,6 C 9,7 C 6,1 C 65 % 0 % 1014 hPa 0,0 l/m 0,1 km/h (0 Bft) 0 min
16.04.2013 04:35 20,6 C 9,7 C 6,1 C 65 % 0 % 1014 hPa 0,0 l/m 0,0 km/h (0 Bft) 0 min
16.04.2013 04:38 20,7 C 9,6 C 6,7 C 66 % 0 % 1014 hPa 0,0 l/m 0,0 km/h (0 Bft) 0 min
16.04.2013 04:41 20,7 C 9,6 C 6,3 C 66 % 0 % 1014 hPa 0,0 l/m 0,0 km/h (0 Bft) 0 min
16.04.2013 04:44 20,7 C 9,6 C 6,3 C 66 % 0 % 1014 hPa 0,0 l/m 0,0 km/h (0 Bft) 0 min
16.04.2013 04:47 20,7 C 9,6 C 6,6 C 66 % 0 % 1014 hPa 0,0 l/m 0,1 km/h (0 Bft) 0 min
16.04.2013 04:50 20,8 C 9,6 C 6,5 C 66 % 0 % 1014 hPa 0,0 l/m 0,1 km/h (0 Bft) 0 min
16.04.2013 04:53 20,8 C 9,6 C 6,5 C 66 % 0 % 1014 hPa 0,0 l/m 0,0 km/h (0 Bft) 0 min
16.04.2013 04:56 20,8 C 9,7 C 6,5 C 66 % 0 % 1014 hPa 0,0 l/m 0,2 km/h (0 Bft) 0 min
16.04.2013 04:59 20,8 C 9,7 C 6,5 C 66 % 0 % 1014 hPa 0,0 l/m 2,1 km/h (1 Bft) 0 min
16.04.2013 05:02 20,8 C 9,7 C 6,5 C 66 % 0 % 1014 hPa 0,0 l/m 2,1 km/h (1 Bft) 0 min
16.04.2013 05:05 20,8 C 9,7 C 6,6 C 65 % 0 % 1014 hPa 0,0 l/m 0,0 km/h (0 Bft) 0 min
16.04.2013 05:08 20,8 C 9,7 C 6,4 C 65 % 0 % 1014 hPa 0,0 l/m 0,0 km/h (0 Bft) 0 min
16.04.2013 05:11 20,8 C 9,7 C 6,3 C 65 % 0 % 1014 hPa 0,0 l/m 0,0 km/h (0 Bft) 0 min
16.04.2013 05:14 20,8 C 9,6 C 6,3 C 65 % 0 % 1014 hPa 0,0 l/m 0,0 km/h (0 Bft) 0 min
16.04.2013 05:17 20,8 C 9,6 C 6,5 C 65 % 0 % 1014 hPa 0,0 l/m 0,0 km/h (0 Bft) 0 min
16.04.2013 05:20 20,8 C 9,5 C 6,2 C 65 % 0 % 1014 hPa 0,0 l/m 2,2 km/h (1 Bft) 0 min
16.04.2013 05:23 20,8 C 9,5 C 5,9 C 66 % 0 % 1014 hPa 0,0 l/m 0,0 km/h (0 Bft) 0 min
16.04.2013 05:26 20,8 C 9,4 C 6,0 C 66 % 0 % 1014 hPa 0,0 l/m 0,0 km/h (0 Bft) 0 min
16.04.2013 05:29 20,8 C 9,4 C 6,1 C 66 % 0 % 1014 hPa 0,0 l/m 0,0 km/h (0 Bft) 0 min
16.04.2013 05:32 20,8 C 9,4 C 6,1 C 66 % 0 % 1014 hPa 0,0 l/m 0,0 km/h (0 Bft) 0 min
16.04.2013 05:35 20,8 C 9,4 C 6,0 C 66 % 0 % 1014 hPa 0,0 l/m 0,0 km/h (0 Bft) 0 min
16.04.2013 05:38 20,8 C 9,3 C 6,0 C 66 % 0 % 1014 hPa 0,0 l/m 0,0 km/h (0 Bft) 0 min
16.04.2013 05:41 20,8 C 9,3 C 6,0 C 66 % 0 % 1014 hPa 0,0 l/m 0,0 km/h (0 Bft) 0 min
16.04.2013 05:44 20,8 C 9,3 C 6,0 C 66 % 0 % 1014 hPa 0,0 l/m 1,6 km/h (1 Bft) 0 min
16.04.2013 05:47 20,8 C 9,2 C 5,6 C 66 % 0 % 1014 hPa 0,0 l/m 0,3 km/h (0 Bft) 0 min
16.04.2013 05:50 20,9 C 9,2 C 5,9 C 66 % 0 % 1014 hPa 0,0 l/m 0,0 km/h (0 Bft) 0 min
16.04.2013 05:53 20,8 C 9,2 C 6,1 C 66 % 0 % 1014 hPa 0,0 l/m 0,0 km/h (0 Bft) 0 min
16.04.2013 05:56 20,9 C 9,2 C 5,9 C 67 % 0 % 1014 hPa 0,0 l/m 0,0 km/h (0 Bft) 0 min
16.04.2013 05:59 20,9 C 9,2 C 5,7 C 67 % 0 % 1014 hPa 0,0 l/m 0,0 km/h (0 Bft) 0 min
16.04.2013 06:02 20,9 C 9,1 C 5,7 C 67 % 0 % 1014 hPa 0,0 l/m 0,0 km/h (0 Bft) 0 min
16.04.2013 06:05 20,9 C 9,1 C 5,8 C 67 % 0 % 1014 hPa 0,0 l/m 0,3 km/h (0 Bft) 0 min
16.04.2013 06:08 20,9 C 8,7 C 5,8 C 68 % 0 % 1014 hPa 0,0 l/m 3,3 km/h (1 Bft) 0 min
16.04.2013 06:11 20,9 C 8,6 C 5,3 C 70 % 0 % 1014 hPa 0,0 l/m 3,3 km/h (1 Bft) 0 min
16.04.2013 06:14 20,9 C 8,5 C 5,3 C 69 % 1 % 1014 hPa 0,0 l/m 3,6 km/h (1 Bft) 0 min
16.04.2013 06:17 20,9 C 8,6 C 5,6 C 69 % 1 % 1014 hPa 0,0 l/m 2,6 km/h (1 Bft) 0 min
16.04.2013 06:20 20,9 C 8,7 C 5,3 C 69 % 1 % 1014 hPa 0,0 l/m 4,4 km/h (1 Bft) 0 min
16.04.2013 06:23 21,0 C 8,7 C 5,3 C 69 % 2 % 1014 hPa 0,0 l/m 0,7 km/h (0 Bft) 0 min
16.04.2013 06:26 21,0 C 8,7 C 5,5 C 69 % 2 % 1014 hPa 0,0 l/m 2,7 km/h (1 Bft) 3 min
16.04.2013 06:29 21,0 C 8,8 C 5,7 C 69 % 3 % 1014 hPa 0,0 l/m 4,6 km/h (1 Bft) 3 min
16.04.2013 06:32 21,1 C 8,8 C 6,1 C 69 % 3 % 1014 hPa 0,0 l/m 4,2 km/h (1 Bft) 0 min
16.04.2013 06:35 21,1 C 9,0 C 6,1 C 69 % 3 % 1014 hPa 0,0 l/m 7,6 km/h (2 Bft) 0 min
16.04.2013 06:38 21,2 C 9,0 C 6,1 C 69 % 4 % 1014 hPa 0,0 l/m 8,1 km/h (2 Bft) 0 min
16.04.2013 06:41 21,2 C 9,0 C 6,5 C 69 % 4 % 1014 hPa 0,0 l/m 4,3 km/h (1 Bft) 0 min
16.04.2013 06:44 21,2 C 9,1 C 6,5 C 69 % 6 % 1014 hPa 0,0 l/m 2,8 km/h (1 Bft) 0 min
16.04.2013 06:47 21,2 C 9,1 C 6,7 C 70 % 6 % 1014 hPa 0,0 l/m 6,5 km/h (2 Bft) 0 min
16.04.2013 06:50 21,2 C 9,2 C 6,8 C 70 % 7 % 1014 hPa 0,0 l/m 8,5 km/h (2 Bft) 0 min
16.04.2013 06:53 21,3 C 9,3 C 6,8 C 69 % 7 % 1014 hPa 0,0 l/m 5,5 km/h (1 Bft) 0 min
16.04.2013 06:56 21,3 C 9,5 C 7,1 C 69 % 8 % 1014 hPa 0,0 l/m 6,4 km/h (2 Bft) 0 min
16.04.2013 06:59 21,2 C 9,6 C 7,3 C 69 % 8 % 1014 hPa 0,0 l/m 5,9 km/h (2 Bft) 0 min
16.04.2013 07:02 21,2 C 9,6 C 7,3 C 69 % 9 % 1014 hPa 0,0 l/m 5,9 km/h (2 Bft) 0 min
16.04.2013 07:05 20,1 C 9,7 C 7,3 C 68 % 10 % 1014 hPa 0,0 l/m 3,7 km/h (1 Bft) 0 min
16.04.2013 07:08 20,1 C 9,8 C 7,4 C 68 % 10 % 1014 hPa 0,0 l/m 3,3 km/h (1 Bft) 0 min
16.04.2013 07:11 19,2 C 9,9 C 7,6 C 68 % 11 % 1014 hPa 0,0 l/m 5,3 km/h (1 Bft) 0 min
16.04.2013 07:14 19,2 C 10,0 C 7,8 C 67 % 11 % 1014 hPa 0,0 l/m 6,8 km/h (2 Bft) 0 min
16.04.2013 07:17 19,4 C 10,0 C 7,9 C 67 % 12 % 1014 hPa 0,0 l/m 6,1 km/h (2 Bft) 0 min
16.04.2013 07:20 19,9 C 10,1 C 7,9 C 67 % 12 % 1014 hPa 0,0 l/m 5,6 km/h (1 Bft) 0 min
16.04.2013 07:23 20,1 C 10,2 C 7,9 C 67 % 12 % 1014 hPa 0,0 l/m 4,7 km/h (1 Bft) 0 min
16.04.2013 07:26 20,3 C 10,4 C 8,4 C 66 % 13 % 1014 hPa 0,0 l/m 3,8 km/h (1 Bft) 0 min
16.04.2013 07:29 20,4 C 10,4 C 8,3 C 66 % 13 % 1014 hPa 0,0 l/m 4,0 km/h (1 Bft) 0 min
16.04.2013 07:32 20,4 C 10,5 C 8,3 C 66 % 14 % 1014 hPa 0,0 l/m 5,6 km/h (1 Bft) 0 min
16.04.2013 07:35 20,5 C 10,5 C 8,5 C 66 % 14 % 1014 hPa 0,0 l/m 6,5 km/h (2 Bft) 0 min
16.04.2013 07:38 20,6 C 10,4 C 8,5 C 66 % 15 % 1014 hPa 0,0 l/m 6,2 km/h (2 Bft) 0 min
16.04.2013 07:41 20,6 C 10,4 C 8,5 C 66 % 16 % 1014 hPa 0,0 l/m 4,0 km/h (1 Bft) 0 min
16.04.2013 07:44 20,7 C 10,4 C 8,5 C 66 % 16 % 1014 hPa 0,0 l/m 3,6 km/h (1 Bft) 0 min
16.04.2013 07:47 20,7 C 10,6 C 8,5 C 67 % 17 % 1014 hPa 0,0 l/m 3,7 km/h (1 Bft) 0 min
16.04.2013 07:50 20,7 C 10,7 C 8,6 C 66 % 18 % 1014 hPa 0,0 l/m 4,2 km/h (1 Bft) 0 min
16.04.2013 07:53 20,8 C 10,8 C 9,0 C 66 % 18 % 1014 hPa 0,0 l/m 4,2 km/h (1 Bft) 0 min
16.04.2013 07:56 20,8 C 10,9 C 9,1 C 66 % 19 % 1014 hPa 0,0 l/m 3,9 km/h (1 Bft) 0 min
16.04.2013 07:59 20,8 C 11,0 C 9,2 C 66 % 19 % 1014 hPa 0,0 l/m 4,2 km/h (1 Bft) 0 min
16.04.2013 08:02 20,8 C 11,1 C 9,6 C 66 % 20 % 1014 hPa 0,0 l/m 4,2 km/h (1 Bft) 0 min
16.04.2013 08:05 20,8 C 11,2 C 9,9 C 65 % 21 % 1014 hPa 0,0 l/m 4,2 km/h (1 Bft) 0 min
16.04.2013 08:08 20,8 C 11,3 C 10,0 C 65 % 21 % 1014 hPa 0,0 l/m 6,0 km/h (2 Bft) 0 min
16.04.2013 08:11 20,8 C 11,3 C 10,3 C 65 % 22 % 1014 hPa 0,0 l/m 4,6 km/h (1 Bft) 0 min
16.04.2013 08:14 20,8 C 11,4 C 10,3 C 65 % 25 % 1014 hPa 0,0 l/m 6,8 km/h (2 Bft) 0 min
16.04.2013 08:17 20,8 C 11,4 C 10,5 C 66 % 25 % 1014 hPa 0,0 l/m 7,2 km/h (2 Bft) 0 min
16.04.2013 08:20 20,9 C 11,4 C 10,9 C 66 % 48 % 1014 hPa 0,0 l/m 5,9 km/h (2 Bft) 3 min
16.04.2013 08:23 20,9 C 11,5 C 11,1 C 67 % 51 % 1014 hPa 0,0 l/m 6,5 km/h (2 Bft) 3 min
16.04.2013 08:26 20,9 C 11,5 C 11,4 C 66 % 48 % 1014 hPa 0,0 l/m 6,3 km/h (2 Bft) 3 min
16.04.2013 08:29 20,8 C 11,6 C 12,4 C 66 % 54 % 1014 hPa 0,0 l/m 6,7 km/h (2 Bft) 3 min
16.04.2013 08:32 20,9 C 11,8 C 14,0 C 66 % 55 % 1014 hPa 0,0 l/m 13,8 km/h (3 Bft) 3 min
16.04.2013 08:35 20,9 C 11,9 C 15,4 C 64 % 55 % 1014 hPa 0,0 l/m 11,2 km/h (2 Bft) 3 min
16.04.2013 08:38 20,9 C 12,0 C 14,5 C 64 % 52 % 1014 hPa 0,0 l/m 9,6 km/h (2 Bft) 3 min
16.04.2013 08:41 21,0 C 12,1 C 15,1 C 63 % 48 % 1014 hPa 0,0 l/m 9,6 km/h (2 Bft) 3 min
16.04.2013 08:44 21,0 C 12,2 C 15,8 C 64 % 52 % 1014 hPa 0,0 l/m 7,9 km/h (2 Bft) 3 min
16.04.2013 08:47 20,9 C 12,3 C 16,0 C 64 % 52 % 1014 hPa 0,0 l/m 9,6 km/h (2 Bft) 3 min
16.04.2013 08:50 21,0 C 12,3 C 15,4 C 63 % 51 % 1014 hPa 0,0 l/m 12,1 km/h (2 Bft) 3 min
16.04.2013 08:53 20,9 C 12,4 C 15,8 C 63 % 51 % 1014 hPa 0,0 l/m 13,1 km/h (3 Bft) 3 min
16.04.2013 08:56 20,9 C 12,4 C 15,2 C 62 % 32 % 1014 hPa 0,0 l/m 13,1 km/h (3 Bft) 0 min
16.04.2013 08:59 20,9 C 12,4 C 13,6 C 62 % 27 % 1014 hPa 0,0 l/m 17,5 km/h (3 Bft) 0 min
16.04.2013 09:02 21,0 C 12,4 C 12,6 C 62 % 27 % 1014 hPa 0,0 l/m 17,5 km/h (3 Bft) 0 min
16.04.2013 09:05 20,9 C 12,4 C 13,0 C 62 % 41 % 1014 hPa 0,0 l/m 9,8 km/h (2 Bft) 0 min
16.04.2013 09:08 21,0 C 12,2 C 14,0 C 61 % 40 % 1014 hPa 0,0 l/m 10,8 km/h (2 Bft) 0 min
16.04.2013 09:11 20,9 C 12,5 C 14,0 C 61 % 44 % 1014 hPa 0,0 l/m 11,1 km/h (2 Bft) 0 min
16.04.2013 09:14 20,9 C 12,6 C 14,7 C 61 % 44 % 1015 hPa 0,0 l/m 11,1 km/h (2 Bft) 0 min
16.04.2013 09:17 20,9 C 12,8 C 15,8 C 60 % 54 % 1015 hPa 0,0 l/m 11,1 km/h (2 Bft) 3 min
16.04.2013 09:20 20,9 C 13,0 C 16,7 C 60 % 54 % 1015 hPa 0,0 l/m 7,2 km/h (2 Bft) 3 min
16.04.2013 09:23 20,9 C 13,0 C 15,6 C 60 % 56 % 1015 hPa 0,0 l/m 8,5 km/h (2 Bft) 3 min
16.04.2013 09:26 20,9 C 13,4 C 15,6 C 60 % 56 % 1015 hPa 0,0 l/m 8,1 km/h (2 Bft) 3 min
16.04.2013 09:29 20,9 C 13,5 C 15,6 C 59 % 58 % 1015 hPa 0,0 l/m 9,3 km/h (2 Bft) 3 min
16.04.2013 09:32 21,0 C 13,6 C 18,2 C 58 % 58 % 1015 hPa 0,0 l/m 10,1 km/h (2 Bft) 3 min
16.04.2013 09:35 20,9 C 13,7 C 17,7 C 58 % 59 % 1014 hPa 0,0 l/m 10,5 km/h (2 Bft) 3 min
16.04.2013 09:38 20,9 C 13,8 C 18,5 C 57 % 61 % 1015 hPa 0,0 l/m 10,8 km/h (2 Bft) 3 min
16.04.2013 09:41 21,0 C 13,9 C 19,7 C 57 % 61 % 1015 hPa 0,0 l/m 11,2 km/h (2 Bft) 3 min
16.04.2013 09:44 21,0 C 14,1 C 19,4 C 57 % 60 % 1015 hPa 0,0 l/m 7,6 km/h (2 Bft) 3 min
16.04.2013 09:47 21,0 C 14,2 C 19,6 C 57 % 56 % 1015 hPa 0,0 l/m 11,0 km/h (2 Bft) 3 min
16.04.2013 09:50 21,0 C 14,3 C 18,5 C 59 % 53 % 1015 hPa 0,0 l/m 11,9 km/h (2 Bft) 3 min
16.04.2013 09:53 20,9 C 14,2 C 18,5 C 57 % 53 % 1015 hPa 0,0 l/m 10,1 km/h (2 Bft) 0 min
16.04.2013 09:56 21,0 C 14,3 C 19,5 C 57 % 53 % 1015 hPa 0,0 l/m 9,4 km/h (2 Bft) 3 min
16.04.2013 09:59 21,0 C 14,3 C 17,3 C 58 % 53 % 1015 hPa 0,0 l/m 10,6 km/h (2 Bft) 3 min
16.04.2013 10:02 21,0 C 14,3 C 18,0 C 58 % 45 % 1015 hPa 0,0 l/m 8,3 km/h (2 Bft) 0 min
16.04.2013 10:05 20,9 C 14,4 C 18,0 C 58 % 41 % 1015 hPa 0,0 l/m 5,6 km/h (1 Bft) 0 min
16.04.2013 10:08 21,0 C 14,5 C 19,5 C 57 % 41 % 1015 hPa 0,0 l/m 6,8 km/h (2 Bft) 0 min
16.04.2013 10:11 20,9 C 14,5 C 18,9 C 57 % 50 % 1015 hPa 0,0 l/m 4,8 km/h (1 Bft) 0 min
16.04.2013 10:14 21,0 C 14,5 C 18,9 C 57 % 52 % 1015 hPa 0,0 l/m 9,3 km/h (2 Bft) 0 min
16.04.2013 10:17 20,9 C 14,8 C 19,1 C 57 % 57 % 1015 hPa 0,0 l/m 11,4 km/h (2 Bft) 3 min
16.04.2013 10:20 20,9 C 14,8 C 19,5 C 58 % 54 % 1015 hPa 0,0 l/m 11,4 km/h (2 Bft) 3 min
16.04.2013 10:23 20,9 C 14,8 C 19,1 C 58 % 54 % 1015 hPa 0,0 l/m 11,4 km/h (2 Bft) 3 min
16.04.2013 10:26 20,9 C 15,0 C 19,1 C 57 % 59 % 1015 hPa 0,0 l/m 10,7 km/h (2 Bft) 3 min
16.04.2013 10:29 20,9 C 15,1 C 20,4 C 57 % 59 % 1015 hPa 0,0 l/m 7,2 km/h (2 Bft) 3 min
16.04.2013 10:32 20,9 C 15,2 C 20,6 C 57 % 71 % 1015 hPa 0,0 l/m 6,8 km/h (2 Bft) 3 min
16.04.2013 10:35 20,9 C 15,5 C 21,4 C 58 % 73 % 1015 hPa 0,0 l/m 10,1 km/h (2 Bft) 3 min
16.04.2013 10:38 21,0 C 15,6 C 21,1 C 56 % 68 % 1015 hPa 0,0 l/m 10,0 km/h (2 Bft) 3 min
16.04.2013 10:41 21,0 C 15,6 C 21,1 C 56 % 68 % 1015 hPa 0,0 l/m 8,0 km/h (2 Bft) 3 min
16.04.2013 10:44 21,0 C 15,8 C 23,0 C 57 % 100 % 1015 hPa 0,0 l/m 10,9 km/h (2 Bft) 3 min
16.04.2013 10:47 21,0 C 16,0 C 22,1 C 56 % 100 % 1015 hPa 0,0 l/m 11,7 km/h (2 Bft) 3 min
16.04.2013 10:50 21,0 C 16,2 C 22,0 C 56 % 62 % 1015 hPa 0,0 l/m 11,7 km/h (2 Bft) 3 min
16.04.2013 10:53 21,0 C 16,2 C 21,5 C 56 % 62 % 1015 hPa 0,0 l/m 13,1 km/h (3 Bft) 3 min
16.04.2013 10:56 20,9 C 16,0 C 20,9 C 55 % 47 % 1015 hPa 0,0 l/m 6,2 km/h (2 Bft) 0 min
16.04.2013 10:59 21,0 C 15,9 C 20,0 C 55 % 43 % 1015 hPa 0,0 l/m 7,8 km/h (2 Bft) 0 min
16.04.2013 11:02 21,0 C 15,9 C 19,3 C 56 % 43 % 1015 hPa 0,0 l/m 7,6 km/h (2 Bft) 0 min
16.04.2013 11:05 21,0 C 15,9 C 19,3 C 56 % 43 % 1015 hPa 0,0 l/m 6,7 km/h (2 Bft) 0 min
16.04.2013 11:08 21,0 C 15,9 C 19,5 C 56 % 48 % 1015 hPa 0,0 l/m 6,5 km/h (2 Bft) 0 min
16.04.2013 11:11 20,9 C 15,9 C 19,5 C 57 % 48 % 1015 hPa 0,0 l/m 10,1 km/h (2 Bft) 0 min
16.04.2013 11:14 20,9 C 16,0 C 21,3 C 57 % 82 % 1015 hPa 0,0 l/m 7,8 km/h (2 Bft) 3 min
16.04.2013 11:17 21,0 C 16,3 C 21,3 C 57 % 82 % 1015 hPa 0,0 l/m 7,8 km/h (2 Bft) 3 min
16.04.2013 11:20 20,9 C 16,5 C 21,3 C 57 % 47 % 1015 hPa 0,0 l/m 6,1 km/h (2 Bft) 0 min
16.04.2013 11:23 20,9 C 16,5 C 21,3 C 57 % 42 % 1015 hPa 0,0 l/m 5,0 km/h (1 Bft) 0 min
16.04.2013 11:26 20,9 C 16,5 C 19,2 C 56 % 39 % 1015 hPa 0,0 l/m 5,2 km/h (1 Bft) 0 min
16.04.2013 11:29 20,9 C 16,5 C 18,9 C 56 % 38 % 1015 hPa 0,0 l/m 8,7 km/h (2 Bft) 0 min
16.04.2013 11:32 20,9 C 16,4 C 19,0 C 55 % 35 % 1015 hPa 0,0 l/m 2,7 km/h (1 Bft) 0 min
16.04.2013 11:35 20,9 C 16,4 C 18,8 C 56 % 35 % 1015 hPa 0,0 l/m 3,4 km/h (1 Bft) 0 min
16.04.2013 11:38 20,9 C 16,4 C 19,0 C 57 % 34 % 1015 hPa 0,0 l/m 3,8 km/h (1 Bft) 0 min
16.04.2013 11:41 20,8 C 16,4 C 18,8 C 57 % 34 % 1015 hPa 0,0 l/m 5,4 km/h (1 Bft) 0 min
16.04.2013 11:44 20,8 C 16,4 C 17,8 C 57 % 36 % 1015 hPa 0,0 l/m 5,4 km/h (1 Bft) 0 min
16.04.2013 11:47 20,9 C 16,3 C 18,3 C 58 % 37 % 1015 hPa 0,0 l/m 4,2 km/h (1 Bft) 0 min
16.04.2013 11:50 20,8 C 16,2 C 18,0 C 58 % 38 % 1015 hPa 0,0 l/m 5,3 km/h (1 Bft) 0 min
16.04.2013 11:53 20,8 C 16,2 C 18,3 C 57 % 39 % 1015 hPa 0,0 l/m 4,8 km/h (1 Bft) 0 min
16.04.2013 11:56 20,9 C 16,2 C 18,7 C 58 % 37 % 1015 hPa 0,0 l/m 5,2 km/h (1 Bft) 0 min
16.04.2013 11:59 20,9 C 16,2 C 18,5 C 58 % 38 % 1015 hPa 0,0 l/m 5,0 km/h (1 Bft) 0 min
16.04.2013 12:02 20,8 C 16,2 C 18,4 C 59 % 35 % 1015 hPa 0,0 l/m 2,5 km/h (1 Bft) 0 min
16.04.2013 12:05 20,9 C 16,3 C 18,3 C 59 % 32 % 1015 hPa 0,0 l/m 5,7 km/h (1 Bft) 0 min
16.04.2013 12:08 20,8 C 16,2 C 17,8 C 60 % 31 % 1015 hPa 0,0 l/m 4,0 km/h (1 Bft) 0 min
16.04.2013 12:11 20,9 C 16,2 C 17,4 C 59 % 30 % 1015 hPa 0,0 l/m 4,1 km/h (1 Bft) 0 min
16.04.2013 12:14 20,9 C 16,2 C 17,3 C 59 % 29 % 1015 hPa 0,0 l/m 5,2 km/h (1 Bft) 0 min
16.04.2013 12:17 20,9 C 16,1 C 17,2 C 59 % 26 % 1015 hPa 0,0 l/m 2,0 km/h (1 Bft) 0 min
16.04.2013 12:20 20,9 C 16,1 C 16,8 C 60 % 26 % 1015 hPa 0,0 l/m 5,8 km/h (2 Bft) 0 min
16.04.2013 12:23 20,9 C 16,1 C 16,6 C 60 % 26 % 1015 hPa 0,0 l/m 7,2 km/h (2 Bft) 0 min
16.04.2013 12:26 20,8 C 16,1 C 16,6 C 60 % 27 % 1015 hPa 0,0 l/m 4,8 km/h (1 Bft) 0 min
16.04.2013 12:29 20,9 C 16,0 C 16,8 C 60 % 30 % 1015 hPa 0,0 l/m 4,2 km/h (1 Bft) 0 min
16.04.2013 12:32 20,9 C 16,0 C 17,3 C 61 % 33 % 1015 hPa 0,0 l/m 2,1 km/h (1 Bft) 0 min
16.04.2013 12:35 20,9 C 16,0 C 17,6 C 61 % 37 % 1015 hPa 0,0 l/m 3,9 km/h (1 Bft) 0 min
16.04.2013 12:38 20,9 C 16,1 C 17,6 C 62 % 43 % 1015 hPa 0,0 l/m 3,9 km/h (1 Bft) 0 min
16.04.2013 12:41 20,9 C 16,2 C 19,0 C 62 % 47 % 1015 hPa 0,0 l/m 0,3 km/h (0 Bft) 0 min
16.04.2013 12:44 20,9 C 16,3 C 19,5 C 61 % 49 % 1015 hPa 0,0 l/m 0,9 km/h (0 Bft) 0 min
16.04.2013 12:47 20,8 C 16,4 C 20,0 C 62 % 50 % 1015 hPa 0,0 l/m 0,3 km/h (0 Bft) 0 min
16.04.2013 12:50 20,8 C 16,5 C 20,1 C 62 % 51 % 1015 hPa 0,0 l/m 6,4 km/h (2 Bft) 0 min
16.04.2013 12:53 20,8 C 16,6 C 20,0 C 61 % 52 % 1015 hPa 0,0 l/m 6,4 km/h (2 Bft) 0 min
16.04.2013 12:56 20,9 C 16,6 C 20,1 C 60 % 54 % 1015 hPa 0,0 l/m 9,3 km/h (2 Bft) 3 min
16.04.2013 12:59 20,9 C 16,6 C 19,8 C 61 % 58 % 1015 hPa 0,0 l/m 8,1 km/h (2 Bft) 3 min
16.04.2013 13:02 20,8 C 16,6 C 20,4 C 64 % 58 % 1015 hPa 0,0 l/m 8,9 km/h (2 Bft) 3 min
16.04.2013 13:05 20,9 C 16,6 C 20,7 C 65 % 66 % 1015 hPa 0,0 l/m 8,4 km/h (2 Bft) 3 min
16.04.2013 13:08 20,9 C 16,6 C 20,5 C 65 % 66 % 1015 hPa 0,0 l/m 10,7 km/h (2 Bft) 3 min
16.04.2013 13:11 20,9 C 16,6 C 20,6 C 65 % 66 % 1015 hPa 0,0 l/m 10,8 km/h (2 Bft) 3 min
16.04.2013 13:14 21,0 C 16,7 C 20,7 C 67 % 82 % 1015 hPa 0,0 l/m 10,6 km/h (2 Bft) 3 min
16.04.2013 13:17 21,0 C 16,7 C 21,6 C 67 % 82 % 1015 hPa 0,0 l/m 11,5 km/h (2 Bft) 3 min
16.04.2013 13:20 21,0 C 17,0 C 23,0 C 67 % 82 % 1015 hPa 0,0 l/m 10,7 km/h (2 Bft) 3 min
16.04.2013 13:23 21,0 C 17,1 C 22,5 C 65 % 82 % 1015 hPa 0,0 l/m 10,7 km/h (2 Bft) 3 min
16.04.2013 13:26 21,0 C 17,1 C 22,0 C 67 % 86 % 1015 hPa 0,0 l/m 13,1 km/h (3 Bft) 3 min
16.04.2013 13:29 21,0 C 17,2 C 22,1 C 65 % 86 % 1015 hPa 0,0 l/m 13,6 km/h (3 Bft) 3 min
16.04.2013 13:32 21,0 C 17,1 C 21,3 C 64 % 86 % 1015 hPa 0,0 l/m 11,9 km/h (2 Bft) 3 min
16.04.2013 13:35 21,0 C 17,3 C 23,0 C 65 % 86 % 1015 hPa 0,0 l/m 11,9 km/h (2 Bft) 3 min
16.04.2013 13:38 21,0 C 17,7 C 24,1 C 63 % 86 % 1015 hPa 0,0 l/m 14,2 km/h (3 Bft) 3 min
16.04.2013 13:41 21,0 C 17,8 C 24,4 C 62 % 86 % 1015 hPa 0,0 l/m 15,6 km/h (3 Bft) 3 min
16.04.2013 13:44 21,0 C 18,0 C 24,4 C 63 % 100 % 1015 hPa 0,0 l/m 15,8 km/h (3 Bft) 3 min
16.04.2013 13:47 21,0 C 17,8 C 22,5 C 62 % 100 % 1015 hPa 0,0 l/m 17,0 km/h (3 Bft) 3 min
16.04.2013 13:50 21,0 C 17,8 C 22,3 C 61 % 85 % 1015 hPa 0,0 l/m 16,7 km/h (3 Bft) 3 min
16.04.2013 13:53 21,0 C 17,7 C 22,3 C 62 % 85 % 1015 hPa 0,0 l/m 16,4 km/h (3 Bft) 3 min
16.04.2013 13:56 21,0 C 17,7 C 21,6 C 62 % 85 % 1015 hPa 0,0 l/m 15,0 km/h (3 Bft) 3 min
16.04.2013 13:59 21,0 C 17,7 C 22,4 C 61 % 85 % 1015 hPa 0,0 l/m 12,8 km/h (3 Bft) 3 min
16.04.2013 14:02 21,0 C 17,9 C 22,5 C 61 % 85 % 1015 hPa 0,0 l/m 15,1 km/h (3 Bft) 3 min
16.04.2013 14:05 21,0 C 18,0 C 23,0 C 61 % 85 % 1015 hPa 0,0 l/m 14,8 km/h (3 Bft) 3 min
16.04.2013 14:08 21,0 C 18,3 C 24,3 C 61 % 85 % 1015 hPa 0,0 l/m 15,8 km/h (3 Bft) 3 min
16.04.2013 14:11 21,0 C 18,5 C 24,5 C 60 % 85 % 1015 hPa 0,0 l/m 12,8 km/h (3 Bft) 3 min
16.04.2013 14:14 21,0 C 18,6 C 24,1 C 58 % 85 % 1015 hPa 0,0 l/m 18,6 km/h (3 Bft) 3 min
16.04.2013 14:17 21,0 C 18,8 C 24,8 C 59 % 85 % 1015 hPa 0,0 l/m 12,9 km/h (3 Bft) 3 min
16.04.2013 14:20 21,0 C 18,7 C 24,1 C 56 % 85 % 1015 hPa 0,0 l/m 14,6 km/h (3 Bft) 3 min
16.04.2013 14:23 21,0 C 18,7 C 23,6 C 57 % 85 % 1015 hPa 0,0 l/m 11,0 km/h (2 Bft) 3 min
16.04.2013 14:26 21,0 C 18,9 C 24,4 C 58 % 85 % 1015 hPa 0,0 l/m 14,3 km/h (3 Bft) 3 min
16.04.2013 14:29 21,0 C 19,1 C 25,6 C 57 % 85 % 1015 hPa 0,0 l/m 9,6 km/h (2 Bft) 3 min
16.04.2013 14:32 21,0 C 19,1 C 24,5 C 56 % 85 % 1015 hPa 0,0 l/m 14,3 km/h (3 Bft) 3 min
16.04.2013 14:35 21,0 C 18,9 C 23,6 C 57 % 85 % 1015 hPa 0,0 l/m 14,5 km/h (3 Bft) 3 min
16.04.2013 14:38 21,0 C 18,9 C 26,0 C 56 % 85 % 1014 hPa 0,0 l/m 15,5 km/h (3 Bft) 3 min
16.04.2013 14:41 21,0 C 19,1 C 26,2 C 57 % 85 % 1014 hPa 0,0 l/m 8,8 km/h (2 Bft) 3 min
16.04.2013 14:44 21,0 C 19,2 C 27,4 C 57 % 85 % 1014 hPa 0,0 l/m 8,8 km/h (2 Bft) 3 min
16.04.2013 14:47 20,9 C 19,5 C 26,5 C 58 % 85 % 1014 hPa 0,0 l/m 9,6 km/h (2 Bft) 3 min
16.04.2013 14:50 21,0 C 19,7 C 24,7 C 55 % 85 % 1014 hPa 0,0 l/m 11,8 km/h (2 Bft) 3 min
16.04.2013 14:53 21,0 C 19,6 C 24,6 C 54 % 93 % 1014 hPa 0,0 l/m 10,3 km/h (2 Bft) 3 min
16.04.2013 14:56 21,0 C 19,5 C 25,6 C 55 % 93 % 1014 hPa 0,0 l/m 7,2 km/h (2 Bft) 3 min
16.04.2013 14:59 21,0 C 19,5 C 24,6 C 56 % 93 % 1014 hPa 0,0 l/m 4,6 km/h (1 Bft) 3 min
16.04.2013 15:02 21,0 C 19,5 C 24,0 C 54 % 93 % 1014 hPa 0,0 l/m 11,1 km/h (2 Bft) 3 min
16.04.2013 15:05 21,0 C 19,5 C 22,3 C 55 % 93 % 1014 hPa 0,0 l/m 7,1 km/h (2 Bft) 3 min
16.04.2013 15:08 21,0 C 19,6 C 23,6 C 55 % 93 % 1014 hPa 0,0 l/m 19,5 km/h (3 Bft) 3 min
16.04.2013 15:11 20,9 C 19,8 C 24,7 C 55 % 93 % 1014 hPa 0,0 l/m 6,7 km/h (2 Bft) 3 min
16.04.2013 15:14 21,0 C 19,9 C 24,6 C 53 % 93 % 1014 hPa 0,0 l/m 7,5 km/h (2 Bft) 3 min
16.04.2013 15:17 21,0 C 19,9 C 25,2 C 55 % 93 % 1014 hPa 0,0 l/m 10,9 km/h (2 Bft) 3 min
16.04.2013 15:20 20,9 C 20,0 C 25,3 C 55 % 93 % 1014 hPa 0,0 l/m 6,6 km/h (2 Bft) 3 min
16.04.2013 15:23 20,9 C 20,2 C 24,9 C 55 % 93 % 1014 hPa 0,0 l/m 5,1 km/h (1 Bft) 3 min
16.04.2013 15:26 20,9 C 20,3 C 23,4 C 55 % 93 % 1014 hPa 0,0 l/m 9,4 km/h (2 Bft) 3 min
16.04.2013 15:29 21,0 C 20,4 C 24,8 C 53 % 93 % 1014 hPa 0,0 l/m 14,5 km/h (3 Bft) 3 min
16.04.2013 15:32 20,9 C 20,4 C 25,0 C 52 % 93 % 1014 hPa 0,0 l/m 11,0 km/h (2 Bft) 3 min
16.04.2013 15:35 21,0 C 20,5 C 24,1 C 52 % 93 % 1014 hPa 0,0 l/m 13,5 km/h (3 Bft) 3 min
16.04.2013 15:38 20,9 C 20,6 C 22,8 C 51 % 93 % 1014 hPa 0,0 l/m 11,6 km/h (2 Bft) 3 min
16.04.2013 15:41 20,9 C 20,6 C 23,5 C 51 % 93 % 1014 hPa 0,0 l/m 8,5 km/h (2 Bft) 3 min
16.04.2013 15:44 20,9 C 20,7 C 23,9 C 53 % 93 % 1014 hPa 0,0 l/m 13,1 km/h (3 Bft) 3 min
16.04.2013 15:47 20,9 C 20,7 C 24,2 C 52 % 93 % 1014 hPa 0,0 l/m 9,4 km/h (2 Bft) 3 min
16.04.2013 15:50 20,9 C 20,8 C 24,2 C 54 % 93 % 1014 hPa 0,0 l/m 10,3 km/h (2 Bft) 3 min
16.04.2013 15:53 20,8 C 20,8 C 23,8 C 51 % 93 % 1014 hPa 0,0 l/m 10,7 km/h (2 Bft) 3 min
16.04.2013 15:56 20,8 C 20,8 C 23,8 C 50 % 93 % 1014 hPa 0,0 l/m 10,6 km/h (2 Bft) 3 min
16.04.2013 15:59 20,9 C 20,8 C 24,3 C 51 % 93 % 1014 hPa 0,0 l/m 12,7 km/h (3 Bft) 3 min
16.04.2013 16:02 20,9 C 20,8 C 23,6 C 49 % 93 % 1014 hPa 0,0 l/m 13,8 km/h (3 Bft) 3 min
16.04.2013 16:05 20,8 C 20,7 C 23,7 C 51 % 93 % 1014 hPa 0,0 l/m 6,3 km/h (2 Bft) 3 min
16.04.2013 16:08 20,9 C 20,7 C 23,7 C 51 % 93 % 1014 hPa 0,0 l/m 16,1 km/h (3 Bft) 3 min
16.04.2013 16:11 20,9 C 20,6 C 24,6 C 50 % 93 % 1014 hPa 0,0 l/m 8,4 km/h (2 Bft) 3 min
16.04.2013 16:14 20,9 C 20,6 C 24,7 C 50 % 93 % 1014 hPa 0,0 l/m 7,0 km/h (2 Bft) 3 min
16.04.2013 16:17 20,9 C 20,6 C 23,7 C 53 % 93 % 1014 hPa 0,0 l/m 1,0 km/h (0 Bft) 3 min
16.04.2013 16:20 20,9 C 20,6 C 23,0 C 51 % 93 % 1014 hPa 0,0 l/m 1,0 km/h (0 Bft) 3 min
16.04.2013 16:23 21,0 C 20,4 C 21,3 C 52 % 62 % 1014 hPa 0,0 l/m 1,0 km/h (0 Bft) 3 min
16.04.2013 16:26 20,9 C 20,4 C 21,3 C 55 % 62 % 1014 hPa 0,0 l/m 1,0 km/h (0 Bft) 3 min
16.04.2013 16:29 20,9 C 20,4 C 21,6 C 55 % 62 % 1014 hPa 0,0 l/m 4,3 km/h (1 Bft) 3 min
16.04.2013 16:32 20,9 C 20,4 C 21,9 C 55 % 62 % 1014 hPa 0,0 l/m 1,4 km/h (1 Bft) 3 min
16.04.2013 16:35 20,9 C 20,4 C 22,0 C 53 % 83 % 1014 hPa 0,0 l/m 7,1 km/h (2 Bft) 3 min
16.04.2013 16:38 20,9 C 20,4 C 22,5 C 53 % 83 % 1014 hPa 0,0 l/m 7,1 km/h (2 Bft) 3 min
16.04.2013 16:41 20,9 C 20,3 C 23,7 C 52 % 83 % 1014 hPa 0,0 l/m 6,6 km/h (2 Bft) 3 min
16.04.2013 16:44 21,0 C 20,4 C 24,6 C 52 % 76 % 1014 hPa 0,0 l/m 4,2 km/h (1 Bft) 3 min
16.04.2013 16:47 20,9 C 20,4 C 23,1 C 52 % 76 % 1014 hPa 0,0 l/m 0,3 km/h (0 Bft) 3 min
16.04.2013 16:50 21,0 C 20,4 C 22,3 C 50 % 76 % 1014 hPa 0,0 l/m 6,3 km/h (2 Bft) 3 min
16.04.2013 16:53 21,0 C 20,3 C 23,2 C 50 % 76 % 1014 hPa 0,0 l/m 5,2 km/h (1 Bft) 3 min
16.04.2013 16:56 21,0 C 20,4 C 24,6 C 52 % 76 % 1014 hPa 0,0 l/m 0,4 km/h (0 Bft) 3 min
16.04.2013 16:59 21,0 C 20,5 C 24,5 C 51 % 76 % 1014 hPa 0,0 l/m 3,0 km/h (1 Bft) 3 min
16.04.2013 17:02 21,1 C 20,7 C 23,6 C 50 % 76 % 1014 hPa 0,0 l/m 4,5 km/h (1 Bft) 3 min
16.04.2013 17:05 21,2 C 20,8 C 23,9 C 50 % 76 % 1014 hPa 0,0 l/m 5,5 km/h (1 Bft) 3 min
16.04.2013 17:08 21,2 C 20,8 C 23,8 C 50 % 100 % 1014 hPa 0,0 l/m 0,9 km/h (0 Bft) 3 min
16.04.2013 17:11 21,3 C 20,8 C 23,6 C 52 % 100 % 1014 hPa 0,0 l/m 8,4 km/h (2 Bft) 3 min
16.04.2013 17:14 21,4 C 20,7 C 22,8 C 55 % 84 % 1014 hPa 0,0 l/m 6,8 km/h (2 Bft) 3 min
16.04.2013 17:17 21,4 C 20,6 C 22,5 C 53 % 84 % 1014 hPa 0,0 l/m 9,4 km/h (2 Bft) 3 min
16.04.2013 17:20 21,4 C 20,6 C 22,2 C 53 % 51 % 1013 hPa 0,0 l/m 4,9 km/h (1 Bft) 3 min
16.04.2013 17:23 21,4 C 20,5 C 22,1 C 53 % 51 % 1013 hPa 0,0 l/m 11,3 km/h (2 Bft) 3 min
16.04.2013 17:26 21,3 C 20,5 C 22,4 C 52 % 58 % 1013 hPa 0,0 l/m 4,5 km/h (1 Bft) 3 min
16.04.2013 17:29 21,2 C 20,5 C 21,3 C 54 % 58 % 1013 hPa 0,0 l/m 3,1 km/h (1 Bft) 3 min
16.04.2013 17:32 21,2 C 20,4 C 20,9 C 53 % 36 % 1013 hPa 0,0 l/m 9,8 km/h (2 Bft) 0 min
16.04.2013 17:35 21,2 C 20,4 C 21,2 C 53 % 36 % 1013 hPa 0,0 l/m 9,1 km/h (2 Bft) 0 min
16.04.2013 17:38 21,2 C 20,3 C 20,8 C 54 % 36 % 1014 hPa 0,0 l/m 6,6 km/h (2 Bft) 0 min
16.04.2013 17:41 21,2 C 20,3 C 21,0 C 53 % 36 % 1014 hPa 0,0 l/m 6,9 km/h (2 Bft) 0 min
16.04.2013 17:44 21,2 C 20,3 C 21,3 C 52 % 35 % 1014 hPa 0,0 l/m 3,5 km/h (1 Bft) 0 min
16.04.2013 17:47 21,1 C 20,3 C 21,4 C 52 % 31 % 1014 hPa 0,0 l/m 3,1 km/h (1 Bft) 0 min
16.04.2013 17:50 21,2 C 20,3 C 21,3 C 52 % 31 % 1014 hPa 0,0 l/m 3,4 km/h (1 Bft) 0 min
16.04.2013 17:53 21,1 C 20,3 C 21,3 C 53 % 31 % 1014 hPa 0,0 l/m 0,9 km/h (0 Bft) 0 min
16.04.2013 17:56 21,0 C 20,3 C 21,4 C 53 % 31 % 1014 hPa 0,0 l/m 3,9 km/h (1 Bft) 0 min
16.04.2013 17:59 21,0 C 20,3 C 22,2 C 53 % 31 % 1014 hPa 0,0 l/m 3,9 km/h (1 Bft) 0 min
16.04.2013 18:02 21,1 C 20,4 C 22,1 C 52 % 39 % 1014 hPa 0,0 l/m 3,8 km/h (1 Bft) 3 min
16.04.2013 18:05 21,0 C 20,3 C 21,7 C 51 % 42 % 1014 hPa 0,0 l/m 6,7 km/h (2 Bft) 3 min
16.04.2013 18:08 21,0 C 20,3 C 21,8 C 53 % 41 % 1014 hPa 0,0 l/m 8,1 km/h (2 Bft) 3 min
16.04.2013 18:11 21,0 C 20,3 C 22,0 C 51 % 44 % 1014 hPa 0,0 l/m 7,5 km/h (2 Bft) 3 min
16.04.2013 18:14 21,0 C 20,3 C 21,4 C 51 % 44 % 1014 hPa 0,0 l/m 7,0 km/h (2 Bft) 3 min
16.04.2013 18:17 21,0 C 20,3 C 20,9 C 52 % 25 % 1014 hPa 0,0 l/m 8,1 km/h (2 Bft) 0 min
16.04.2013 18:20 21,0 C 20,2 C 20,4 C 52 % 20 % 1014 hPa 0,0 l/m 7,8 km/h (2 Bft) 0 min
16.04.2013 18:23 21,0 C 20,2 C 20,1 C 54 % 15 % 1014 hPa 0,0 l/m 10,0 km/h (2 Bft) 0 min
16.04.2013 18:26 21,0 C 20,2 C 19,5 C 54 % 11 % 1014 hPa 0,0 l/m 10,5 km/h (2 Bft) 0 min
16.04.2013 18:29 20,9 C 19,8 C 18,9 C 59 % 8 % 1014 hPa 0,0 l/m 11,8 km/h (2 Bft) 0 min
16.04.2013 18:32 20,9 C 19,6 C 18,8 C 60 % 6 % 1014 hPa 0,0 l/m 17,0 km/h (3 Bft) 0 min
16.04.2013 18:35 20,8 C 19,5 C 18,7 C 62 % 5 % 1014 hPa 0,0 l/m 11,8 km/h (2 Bft) 0 min
16.04.2013 18:38 20,8 C 19,4 C 18,6 C 62 % 5 % 1014 hPa 0,0 l/m 10,8 km/h (2 Bft) 0 min
16.04.2013 18:41 20,8 C 19,3 C 17,9 C 60 % 4 % 1014 hPa 0,0 l/m 8,5 km/h (2 Bft) 0 min
16.04.2013 18:44 20,7 C 19,1 C 17,3 C 56 % 4 % 1014 hPa 0,0 l/m 14,3 km/h (3 Bft) 0 min
16.04.2013 18:47 20,6 C 18,9 C 17,3 C 57 % 4 % 1014 hPa 0,0 l/m 9,1 km/h (2 Bft) 0 min
16.04.2013 18:50 20,6 C 18,8 C 17,6 C 57 % 4 % 1014 hPa 0,0 l/m 13,8 km/h (3 Bft) 0 min
16.04.2013 18:53 20,6 C 18,8 C 17,5 C 57 % 4 % 1014 hPa 0,0 l/m 6,3 km/h (2 Bft) 0 min
16.04.2013 18:56 20,7 C 18,7 C 17,3 C 57 % 4 % 1014 hPa 0,0 l/m 0,0 km/h (0 Bft) 0 min
16.04.2013 18:59 20,8 C 18,6 C 17,3 C 57 % 4 % 1014 hPa 0,0 l/m 0,0 km/h (0 Bft) 0 min
16.04.2013 19:02 20,8 C 18,6 C 17,3 C 57 % 5 % 1014 hPa 0,0 l/m 0,0 km/h (0 Bft) 0 min
16.04.2013 19:05 20,8 C 18,5 C 17,0 C 57 % 5 % 1014 hPa 0,0 l/m 1,9 km/h (1 Bft) 0 min
16.04.2013 19:08 20,9 C 18,5 C 17,6 C 57 % 4 % 1014 hPa 0,0 l/m 2,2 km/h (1 Bft) 0 min
16.04.2013 19:11 20,9 C 18,4 C 17,2 C 58 % 3 % 1014 hPa 0,0 l/m 4,0 km/h (1 Bft) 0 min
16.04.2013 19:14 20,9 C 18,4 C 17,0 C 58 % 3 % 1014 hPa 0,0 l/m 2,8 km/h (1 Bft) 0 min
16.04.2013 19:17 20,9 C 18,4 C 16,8 C 58 % 2 % 1014 hPa 0,0 l/m 0,1 km/h (0 Bft) 0 min
16.04.2013 19:20 20,9 C 18,3 C 17,0 C 59 % 2 % 1014 hPa 0,0 l/m 0,7 km/h (0 Bft) 0 min
16.04.2013 19:23 20,9 C 18,2 C 16,8 C 59 % 1 % 1014 hPa 0,0 l/m 0,1 km/h (0 Bft) 0 min
16.04.2013 19:26 21,0 C 18,2 C 16,6 C 59 % 1 % 1015 hPa 0,0 l/m 0,1 km/h (0 Bft) 0 min
16.04.2013 19:29 20,9 C 18,2 C 16,3 C 59 % 1 % 1015 hPa 0,0 l/m 3,5 km/h (1 Bft) 0 min
16.04.2013 19:32 20,9 C 18,0 C 16,1 C 59 % 1 % 1015 hPa 0,0 l/m 0,1 km/h (0 Bft) 0 min
16.04.2013 19:35 20,9 C 18,0 C 15,6 C 59 % 1 % 1015 hPa 0,0 l/m 0,3 km/h (0 Bft) 0 min
16.04.2013 19:38 20,9 C 18,0 C 15,6 C 59 % 1 % 1015 hPa 0,0 l/m 1,7 km/h (1 Bft) 0 min
16.04.2013 19:41 21,0 C 17,9 C 15,1 C 60 % 1 % 1015 hPa 0,0 l/m 0,6 km/h (0 Bft) 0 min
16.04.2013 19:44 21,0 C 17,8 C 14,9 C 61 % 1 % 1015 hPa 0,0 l/m 4,5 km/h (1 Bft) 0 min
16.04.2013 19:47 21,0 C 17,7 C 14,8 C 62 % 1 % 1015 hPa 0,0 l/m 0,5 km/h (0 Bft) 0 min
16.04.2013 19:50 21,0 C 17,6 C 14,6 C 62 % 1 % 1015 hPa 0,0 l/m 0,0 km/h (0 Bft) 0 min
16.04.2013 19:53 21,1 C 17,5 C 14,5 C 63 % 1 % 1015 hPa 0,0 l/m 3,1 km/h (1 Bft) 0 min
16.04.2013 19:56 21,1 C 17,4 C 14,1 C 64 % 1 % 1015 hPa 0,0 l/m 0,3 km/h (0 Bft) 0 min
16.04.2013 19:59 21,2 C 17,3 C 13,6 C 65 % 1 % 1015 hPa 0,0 l/m 6,3 km/h (2 Bft) 0 min
16.04.2013 20:02 21,2 C 17,1 C 13,5 C 65 % 0 % 1015 hPa 0,0 l/m 5,4 km/h (1 Bft) 0 min
16.04.2013 20:05 21,2 C 16,9 C 13,5 C 67 % 0 % 1015 hPa 0,0 l/m 10,6 km/h (2 Bft) 0 min
16.04.2013 20:08 21,2 C 16,7 C 13,4 C 69 % 0 % 1015 hPa 0,0 l/m 10,6 km/h (2 Bft) 0 min
16.04.2013 20:11 21,2 C 16,6 C 13,4 C 70 % 0 % 1015 hPa 0,0 l/m 4,3 km/h (1 Bft) 0 min
16.04.2013 20:14 21,2 C 16,5 C 13,2 C 70 % 0 % 1015 hPa 0,0 l/m 0,0 km/h (0 Bft) 0 min
16.04.2013 20:17 21,2 C 16,4 C 12,9 C 70 % 0 % 1015 hPa 0,0 l/m 2,7 km/h (1 Bft) 0 min
16.04.2013 20:20 21,2 C 16,4 C 12,9 C 70 % 0 % 1015 hPa 0,0 l/m 4,3 km/h (1 Bft) 0 min
16.04.2013 20:23 21,2 C 16,2 C 13,0 C 71 % 0 % 1015 hPa 0,0 l/m 0,0 km/h (0 Bft) 0 min
16.04.2013 20:26 21,2 C 16,2 C 12,7 C 70 % 0 % 1015 hPa 0,0 l/m 1,3 km/h (1 Bft) 0 min
16.04.2013 20:29 21,2 C 16,2 C 12,9 C 69 % 0 % 1015 hPa 0,0 l/m 0,2 km/h (0 Bft) 0 min
16.04.2013 20:32 21,2 C 16,1 C 12,7 C 68 % 0 % 1015 hPa 0,0 l/m 0,0 km/h (0 Bft) 0 min
16.04.2013 20:35 21,2 C 16,1 C 12,3 C 68 % 0 % 1015 hPa 0,0 l/m 0,0 km/h (0 Bft) 0 min
16.04.2013 20:38 21,2 C 16,1 C 12,3 C 68 % 0 % 1015 hPa 0,0 l/m 2,3 km/h (1 Bft) 0 min
16.04.2013 20:41 21,2 C 16,0 C 12,1 C 68 % 0 % 1015 hPa 0,0 l/m 0,4 km/h (0 Bft) 0 min
16.04.2013 20:44 21,2 C 15,9 C 12,0 C 68 % 0 % 1015 hPa 0,0 l/m 1,7 km/h (1 Bft) 0 min
16.04.2013 20:47 21,2 C 15,7 C 12,4 C 70 % 0 % 1015 hPa 0,0 l/m 0,0 km/h (0 Bft) 0 min
16.04.2013 20:50 21,2 C 15,5 C 12,5 C 73 % 0 % 1015 hPa 0,0 l/m 2,8 km/h (1 Bft) 0 min
16.04.2013 20:53 21,2 C 15,4 C 12,6 C 74 % 0 % 1015 hPa 0,0 l/m 0,2 km/h (0 Bft) 0 min
16.04.2013 20:56 21,2 C 15,4 C 12,2 C 73 % 0 % 1015 hPa 0,0 l/m 0,0 km/h (0 Bft) 0 min
16.04.2013 20:59 21,2 C 15,4 C 12,3 C 72 % 0 % 1015 hPa 0,0 l/m 0,0 km/h (0 Bft) 0 min
16.04.2013 21:02 21,2 C 15,4 C 12,1 C 71 % 0 % 1015 hPa 0,0 l/m 0,0 km/h (0 Bft) 0 min
16.04.2013 21:05 21,2 C 15,4 C 12,0 C 71 % 0 % 1015 hPa 0,0 l/m 0,3 km/h (0 Bft) 0 min
16.04.2013 21:08 21,2 C 15,4 C 12,4 C 72 % 0 % 1015 hPa 0,0 l/m 3,7 km/h (1 Bft) 0 min
16.04.2013 21:11 21,2 C 15,2 C 12,1 C 73 % 0 % 1015 hPa 0,0 l/m 3,7 km/h (1 Bft) 0 min
16.04.2013 21:14 21,2 C 15,1 C 12,1 C 73 % 0 % 1015 hPa 0,0 l/m 5,9 km/h (2 Bft) 0 min
16.04.2013 21:17 21,2 C 15,0 C 12,1 C 73 % 0 % 1015 hPa 0,0 l/m 5,9 km/h (2 Bft) 0 min
16.04.2013 21:20 21,2 C 14,8 C 12,3 C 74 % 0 % 1015 hPa 0,0 l/m 5,2 km/h (1 Bft) 0 min
16.04.2013 21:23 21,1 C 14,7 C 12,2 C 75 % 0 % 1015 hPa 0,0 l/m 3,0 km/h (1 Bft) 0 min
16.04.2013 21:26 21,2 C 14,6 C 12,2 C 75 % 0 % 1015 hPa 0,0 l/m 3,2 km/h (1 Bft) 0 min
16.04.2013 21:29 21,2 C 14,6 C 12,4 C 75 % 0 % 1015 hPa 0,0 l/m 3,3 km/h (1 Bft) 0 min
16.04.2013 21:32 21,2 C 14,6 C 12,5 C 76 % 0 % 1015 hPa 0,0 l/m 3,0 km/h (1 Bft) 0 min
16.04.2013 21:35 21,2 C 14,6 C 12,5 C 76 % 0 % 1015 hPa 0,0 l/m 0,9 km/h (0 Bft) 0 min
16.04.2013 21:38 21,2 C 14,5 C 12,7 C 75 % 0 % 1015 hPa 0,0 l/m 2,8 km/h (1 Bft) 0 min
16.04.2013 21:41 21,2 C 14,5 C 12,7 C 76 % 0 % 1015 hPa 0,0 l/m 0,7 km/h (0 Bft) 0 min
16.04.2013 21:44 21,2 C 14,5 C 12,6 C 76 % 0 % 1015 hPa 0,0 l/m 0,2 km/h (0 Bft) 0 min
16.04.2013 21:47 21,2 C 14,5 C 12,6 C 76 % 0 % 1016 hPa 0,0 l/m 0,2 km/h (0 Bft) 0 min
16.04.2013 21:50 21,2 C 14,6 C 12,8 C 77 % 0 % 1016 hPa 0,0 l/m 5,6 km/h (1 Bft) 0 min
16.04.2013 21:53 21,2 C 14,6 C 12,9 C 77 % 0 % 1016 hPa 0,0 l/m 5,3 km/h (1 Bft) 0 min
16.04.2013 21:56 21,2 C 14,6 C 12,9 C 77 % 0 % 1016 hPa 0,0 l/m 3,8 km/h (1 Bft) 0 min
16.04.2013 21:59 21,2 C 14,5 C 12,9 C 78 % 0 % 1016 hPa 0,0 l/m 3,8 km/h (1 Bft) 0 min
16.04.2013 22:02 21,2 C 14,5 C 12,8 C 79 % 0 % 1016 hPa 0,0 l/m 2,7 km/h (1 Bft) 0 min
16.04.2013 22:05 21,2 C 14,4 C 12,6 C 81 % 0 % 1016 hPa 0,0 l/m 6,5 km/h (2 Bft) 0 min
16.04.2013 22:08 21,2 C 14,2 C 12,8 C 83 % 0 % 1016 hPa 0,0 l/m 12,5 km/h (3 Bft) 0 min
16.04.2013 22:11 21,2 C 14,1 C 12,8 C 84 % 0 % 1016 hPa 0,0 l/m 11,6 km/h (2 Bft) 0 min
16.04.2013 22:14 21,2 C 14,1 C 13,0 C 85 % 0 % 1016 hPa 0,0 l/m 9,8 km/h (2 Bft) 0 min
16.04.2013 22:17 21,2 C 14,1 C 12,9 C 85 % 0 % 1016 hPa 0,0 l/m 2,3 km/h (1 Bft) 0 min
16.04.2013 22:20 21,2 C 14,1 C 12,8 C 83 % 0 % 1016 hPa 0,0 l/m 0,0 km/h (0 Bft) 0 min
16.04.2013 22:23 21,1 C 14,1 C 12,8 C 83 % 0 % 1016 hPa 0,0 l/m 0,6 km/h (0 Bft) 0 min
16.04.2013 22:26 21,1 C 14,2 C 12,8 C 82 % 0 % 1016 hPa 0,0 l/m 0,0 km/h (0 Bft) 0 min
16.04.2013 22:29 21,1 C 14,2 C 12,8 C 81 % 0 % 1016 hPa 0,0 l/m 2,2 km/h (1 Bft) 0 min
16.04.2013 22:32 21,1 C 14,2 C 12,8 C 81 % 0 % 1016 hPa 0,0 l/m 0,1 km/h (0 Bft) 0 min
16.04.2013 22:35 21,1 C 14,2 C 12,8 C 81 % 0 % 1016 hPa 0,0 l/m 0,1 km/h (0 Bft) 0 min
16.04.2013 22:38 21,1 C 14,2 C 12,8 C 80 % 0 % 1016 hPa 0,0 l/m 0,0 km/h (0 Bft) 0 min
16.04.2013 22:41 21,1 C 14,2 C 12,7 C 80 % 0 % 1016 hPa 0,0 l/m 0,0 km/h (0 Bft) 0 min
16.04.2013 22:44 21,1 C 14,2 C 12,7 C 80 % 0 % 1016 hPa 0,0 l/m 0,0 km/h (0 Bft) 0 min
16.04.2013 22:47 21,1 C 14,2 C 12,6 C 80 % 0 % 1016 hPa 0,0 l/m 0,0 km/h (0 Bft) 0 min
16.04.2013 22:50 21,1 C 14,2 C 12,6 C 80 % 0 % 1016 hPa 0,0 l/m 0,0 km/h (0 Bft) 0 min
16.04.2013 22:53 21,1 C 14,2 C 12,4 C 80 % 0 % 1016 hPa 0,0 l/m 0,0 km/h (0 Bft) 0 min
16.04.2013 22:56 21,0 C 14,2 C 12,5 C 79 % 0 % 1016 hPa 0,0 l/m 0,1 km/h (0 Bft) 0 min
16.04.2013 22:59 21,0 C 14,2 C 12,6 C 80 % 0 % 1016 hPa 0,0 l/m 2,1 km/h (1 Bft) 0 min
16.04.2013 23:02 21,0 C 14,1 C 12,6 C 79 % 0 % 1016 hPa 0,0 l/m 0,8 km/h (0 Bft) 0 min
16.04.2013 23:05 21,0 C 14,0 C 12,6 C 79 % 0 % 1016 hPa 0,0 l/m 4,0 km/h (1 Bft) 0 min
16.04.2013 23:08 21,0 C 14,0 C 12,5 C 80 % 0 % 1016 hPa 0,0 l/m 2,2 km/h (1 Bft) 0 min
16.04.2013 23:11 21,0 C 13,9 C 12,6 C 80 % 0 % 1016 hPa 0,0 l/m 3,5 km/h (1 Bft) 0 min
16.04.2013 23:14 21,0 C 13,9 C 12,6 C 82 % 0 % 1016 hPa 0,0 l/m 4,5 km/h (1 Bft) 0 min
16.04.2013 23:17 21,0 C 13,9 C 12,6 C 82 % 0 % 1016 hPa 0,0 l/m 3,2 km/h (1 Bft) 0 min
16.04.2013 23:20 21,0 C 13,9 C 12,6 C 82 % 0 % 1016 hPa 0,0 l/m 3,4 km/h (1 Bft) 0 min
16.04.2013 23:23 21,0 C 14,0 C 12,6 C 81 % 0 % 1016 hPa 0,0 l/m 1,5 km/h (1 Bft) 0 min
16.04.2013 23:26 21,0 C 14,0 C 12,7 C 81 % 0 % 1016 hPa 0,0 l/m 0,4 km/h (0 Bft) 0 min
16.04.2013 23:29 21,0 C 14,0 C 12,6 C 81 % 0 % 1016 hPa 0,0 l/m 0,0 km/h (0 Bft) 0 min
16.04.2013 23:32 21,0 C 14,0 C 12,5 C 81 % 0 % 1016 hPa 0,0 l/m 0,0 km/h (0 Bft) 0 min
16.04.2013 23:35 21,0 C 14,0 C 12,9 C 81 % 0 % 1016 hPa 0,0 l/m 0,0 km/h (0 Bft) 0 min
16.04.2013 23:38 21,0 C 14,0 C 12,7 C 81 % 0 % 1016 hPa 0,0 l/m 0,0 km/h (0 Bft) 0 min
16.04.2013 23:41 21,0 C 14,1 C 12,6 C 81 % 0 % 1016 hPa 0,0 l/m 0,0 km/h (0 Bft) 0 min
16.04.2013 23:44 21,0 C 14,1 C 12,5 C 81 % 0 % 1016 hPa 0,0 l/m 0,0 km/h (0 Bft) 0 min
16.04.2013 23:47 21,0 C 14,1 C 12,4 C 80 % 0 % 1016 hPa 0,0 l/m 0,1 km/h (0 Bft) 0 min
16.04.2013 23:50 21,0 C 14,1 C 12,5 C 80 % 0 % 1016 hPa 0,0 l/m 0,0 km/h (0 Bft) 0 min
16.04.2013 23:53 21,0 C 14,1 C 12,6 C 80 % 0 % 1016 hPa 0,0 l/m 0,0 km/h (0 Bft) 0 min
16.04.2013 23:56 20,9 C 13,9 C 12,5 C 81 % 0 % 1016 hPa 0,0 l/m 1,0 km/h (0 Bft) 0 min
16.04.2013 23:59 20,9 C 13,8 C 12,4 C 81 % 0 % 1016 hPa 0,0 l/m 2,4 km/h (1 Bft) 0 min
_ Min-Zeit 07:11 06:14 06:11 16:02 - 03:20 - 00:17 -
Minimum _ 19,2 C 8,5 C 5,3 C 49 % - 1013 hPa - 0,0 km/h (0 Bft) -
_ Max-Zeit 17:14 15:50 14:44 22:14 10:44 21:47 00:02 15:08 06:26
Maximum _ 21,4 C 20,8 C 27,4 C 85 % 100 % 1016 hPa 0,0 l/m 19,5 km/h
W-SW (3 Bft)
3 min
Durchschnitt _ 20,9 C 14,7 C 14,6 C 62 % #7:00 h 1015 hPa #0,0 l/m 5,0 km/h (1 Bft) #7:00 h